{"data":{"norad_id":62227,"epoch":"2026-05-25T02:27:46.380096Z","epoch_age_seconds":76590,"freshness":"FRESH","line1":"1 62227U 24231K   26145.10262014  .00157111  00000+0  12767-2 0  9995","line2":"2 62227  53.1570  84.5304 0001075  86.2224 273.8917 15.69720139 85411","mean_motion":15.69720139,"eccentricity":0.0001075,"inclination_deg":53.157,"raan_deg":84.5304,"arg_perigee_deg":86.2224,"mean_anomaly_deg":273.8917,"bstar":0.0012767,"rev_number":8541,"period_min":91.736097679002,"perigee_km":358.97341940477,"apogee_km":360.42205387314,"semimajor_km":6737.834736639,"source":"CELESTRAK","updated_at":"2026-05-25T13:38:19.614906Z"}}